Tracking 25734 objects as of 26-May-2022
HD Live streaming from Space Station
objects crossing your sky now

DMSP 5D-2 F11 DEB

Track DMSP 5D-2 F11 DEB now!
10-day predictions


NORAD ID: 28330
Int'l Code: 1991-082AT
Perigee: 767.3 km
Apogee: 904.1 km
Inclination: 99.0 °
Period: 101.5 minutes
Semi major axis: 7206 km
RCS: 0.0098 m2 (small)
Launch date: November 28, 1991
Source: United States (US)
Launch site: AIR FORCE WESTERN TEST RANGE (AFWTR)

Note: This is SATELLITE DEBRIS
aabbcc
Your satellite tracking list
Your tracking list is empty




NASA's NSSDC Master Catalog

Two Line Element Set (TLE):
1 28330U 91082AT  22146.74846141  .00003636  00000-0  16841-2 0  9996
2 28330  99.0218 162.6469 0094921 102.9888 258.1906 14.19059053928773
Source of the keplerian elements: AFSPC